2022-090A (53346 NORAD) Tracking and Keplerian Element Data

This shows tracking and keplerian element data for the satellite.

Feedback or suggestion? Click here.




ElementValue
Catalog53346
Name2022-090A
Epoch Orbit1660
Epoch Day325.31291263
Epoch Year2022
RAAN37.2067
Inclination97.4605
Eccentricity0.0005276
Argument of Perigee210.747
Mean Anonmoly234.3453
Mean Motion15.21079049
Decay Rate3.303E-05
L11 53346U 22090A 22325.31291263 .00003303 00000+0 15172-3 0 9992
L22 53346 97.4605 37.2067 0005276 210.7470 234.3453 15.21079049 16605



Live tracking and technical data element details for 2022-090A (NORAD 53346). 2022-090A can be tracked NOW for your location showing map with azimuth and elevation plus other details from your city location.







IsCatalogInMostPopularTable: catalog: 53346, numindb: 5
Update: records affected: 1



GetName: 53346 2022-090A

Hit Count: updated at: Thu, 08 Dec 2022 20:29:32 GMT